Theta_e
340 339 339 339 338 338 338 339 338 338 339 339 339 338 337 337 336 335 336 336 335 334 335 336 336 336 336 335 334 334 333 333 333 333 333 332 332 332 331 330 332 333 334 334 333 334 336 336 334 333 333 332 332 332 332 332 332 331 331 331 331 331 331
340 339 339 338 338 338 338 338 338 338 338 339 339 339 338 338 337 336 335 336 336 335 334 335 336 336 336 336 335 334 334 334 333 332 332 332 331 331 331 331 333 334 333 334 333 331 334 336 335 334 333 332 331 330 331 333 332 331 331 331 331 331 331
339 338 338 338 338 337 337 338 338 338 338 338 338 338 338 338 338 337 336 337 337 337 336 335 335 335 335 335 335 334 334 333 333 333 333 332 331 331 331 332 334 334 334 334 334 333 333 334 335 334 333 332 332 331 331 332 332 332 331 330 330 331 330
337 336 336 336 336 336 336 337 337 337 337 336 336 337 337 338 338 338 337 337 337 337 336 336 335 335 335 335 335 334 334 333 333 333 333 333 332 331 331 333 334 333 333 334 334 334 334 334 334 334 332 332 333 333 332 332 332 332 332 331 330 330 330
335 335 335 335 335 336 336 336 336 337 337 335 335 335 335 335 336 337 337 337 337 337 336 336 336 335 335 334 335 334 333 332 332 333 332 333 332 332 332 333 334 334 332 333 333 333 333 333 333 333 333 332 332 332 333 332 332 332 332 332 330 330 330
335 335 335 335 335 335 335 335 335 336 336 335 334 333 332 332 333 334 336 336 336 336 336 336 336 335 335 334 334 334 334 333 332 332 332 332 332 332 333 333 333 333 332 332 333 332 331 331 331 332 332 331 330 331 332 332 332 331 330 331 331 331 330
334 334 334 333 333 334 334 334 334 334 334 334 334 333 332 331 331 332 333 334 336 336 336 336 335 335 334 334 334 334 334 333 333 333 332 333 333 333 333 333 333 333 333 333 333 332 331 330 330 331 331 330 329 329 329 330 331 331 330 330 330 330 330
334 333 332 332 332 333 333 334 334 334 333 333 334 334 333 331 330 330 331 332 335 336 336 336 335 334 334 334 334 334 334 333 333 333 333 333 333 332 332 333 332 333 334 334 333 332 331 331 330 329 329 331 330 329 328 329 330 330 331 330 330 329 330
334 333 333 333 333 333 333 333 334 333 333 333 334 333 333 331 329 329 331 331 331 333 335 335 335 334 334 334 334 334 334 333 333 333 331 332 332 332 332 332 333 333 334 334 332 331 331 332 330 329 329 330 331 330 330 330 330 330 329 329 330 329 329
332 333 333 333 333 332 332 333 332 332 333 333 333 332 332 331 330 329 330 330 330 332 335 335 334 333 333 333 333 334 332 332 332 331 330 331 332 333 333 332 333 333 333 333 332 332 333 333 332 331 330 329 330 331 331 330 331 330 329 329 330 329 329
331 332 332 333 332 332 333 333 331 331 331 331 331 331 331 331 330 330 330 331 330 331 333 334 333 333 333 333 333 332 332 332 332 331 331 331 332 333 333 333 333 333 332 332 332 333 334 334 333 332 331 329 329 330 329 330 333 331 328 329 329 329 329
330 331 331 332 331 332 332 332 331 330 330 329 329 330 330 330 330 330 330 330 329 331 333 334 333 333 333 332 331 331 331 332 332 331 330 330 332 333 333 332 332 332 332 332 333 333 332 332 332 331 330 329 329 330 327 329 334 333 329 329 329 329 329
329 330 331 331 331 331 331 331 331 330 330 330 330 330 329 329 330 330 330 329 329 330 333 334 333 333 332 331 331 330 330 330 330 330 330 330 332 333 333 333 333 332 332 331 332 332 331 331 331 331 331 330 330 330 327 326 331 332 330 330 329 328 329
328 329 330 330 330 331 331 330 330 330 329 330 330 330 330 330 330 330 330 330 330 330 332 332 332 331 332 331 330 330 329 329 329 329 331 332 332 332 332 333 333 332 331 331 332 333 332 331 330 332 333 331 330 330 329 328 329 330 330 330 329 329 328
327 329 330 330 330 330 330 329 330 330 329 330 330 330 330 329 330 330 330 330 330 331 331 331 331 331 332 331 331 330 330 330 330 330 330 332 332 332 332 332 333 332 332 333 333 333 333 332 331 332 331 330 329 330 330 329 329 330 330 329 329 329 328
328 329 330 330 330 329 329 329 329 329 329 329 329 330 329 330 330 330 331 330 329 329 330 330 331 332 332 331 331 331 331 331 332 331 330 331 331 331 331 330 331 333 333 334 334 334 334 332 332 331 328 328 328 328 330 330 330 330 329 329 330 329 328
327 328 329 329 329 329 328 329 329 329 329 329 329 329 329 330 330 330 331 330 329 330 330 330 331 332 332 332 332 332 332 331 332 331 330 330 329 329 328 328 330 333 333 333 334 334 333 332 331 330 327 327 328 328 329 329 330 331 330 330 329 328 328
325 326 327 327 327 328 327 328 328 328 328 328 328 329 329 329 329 330 330 330 330 330 330 330 331 331 331 331 331 331 331 331 331 331 330 329 328 328 329 329 331 332 332 332 333 333 332 332 330 329 327 328 329 329 328 329 330 330 329 329 329 327 327
322 322 323 324 324 325 326 326 327 327 326 328 328 328 329 329 329 330 329 329 329 329 329 329 330 331 330 331 330 331 330 330 330 330 330 330 331 331 331 331 330 330 330 331 332 331 330 330 329 328 328 330 329 329 329 329 329 329 328 328 327 326 325
320 320 320 321 322 322 323 324 325 325 325 326 327 327 328 327 327 327 328 327 328 328 328 328 329 330 330 330 329 330 329 328 329 329 329 330 330 331 330 330 330 330 330 330 330 328 328 329 328 328 328 329 329 330 330 328 327 327 327 326 325 324 323
318 319 319 319 319 319 320 320 321 322 323 325 326 326 326 326 326 326 326 326 326 326 326 327 328 328 329 328 328 328 327 327 327 327 327 329 330 330 329 328 329 329 329 328 328 328 328 328 328 328 328 329 329 329 329 327 325 326 326 326 325 324 323
317 317 317 317 317 316 316 316 317 318 320 322 323 324 325 325 325 325 324 325 324 323 324 325 326 326 326 326 325 326 326 326 327 326 327 328 329 329 328 327 328 328 328 328 328 328 328 329 330 329 329 330 330 329 328 327 325 325 325 326 326 326 325
316 316 316 316 315 314 314 314 314 315 316 318 319 321 322 322 321 320 321 322 322 322 322 322 323 324 325 324 324 325 325 325 326 327 327 328 328 327 327 328 328 328 329 329 329 329 329 330 330 330 329 330 330 329 327 326 325 324 324 324 324 325 326
315 315 315 315 314 313 312 312 312 313 314 315 316 318 319 319 317 317 318 318 319 320 321 321 322 323 324 324 324 324 324 325 326 326 326 326 326 327 328 328 328 327 327 327 328 330 329 329 329 329 328 327 328 328 326 326 325 324 324 324 324 323 324
315 315 314 314 313 312 311 311 311 311 311 312 312 313 314 314 314 315 316 316 317 318 320 320 321 321 322 322 323 324 324 324 324 324 324 325 325 326 326 326 326 325 324 324 325 327 328 328 328 329 328 326 327 327 326 325 325 324 324 324 323 323 323
315 314 314 313 312 311 310 309 309 309 309 310 310 310 310 310 311 312 314 315 316 318 319 320 321 321 322 322 323 324 324 323 324 324 324 324 324 325 325 325 324 323 322 321 321 323 324 325 325 325 325 325 325 325 325 325 325 324 323 324 323 324 325
314 314 313 312 312 310 310 309 308 308 308 308 308 308 308 308 309 310 311 312 315 317 318 320 321 322 323 323 323 324 324 324 323 322 322 322 322 323 324 323 323 323 322 321 320 320 320 322 323 322 322 322 321 322 323 324 324 323 323 324 324 324 324
313 313 312 311 311 310 309 308 307 307 306 306 306 306 306 306 307 309 309 311 313 315 317 318 320 321 322 322 322 322 323 323 323 321 321 321 321 322 322 323 322 322 322 322 322 321 321 323 323 321 319 319 319 320 322 324 324 324 324 325 325 325 324
312 312 312 310 310 309 308 308 308 307 306 306 305 305 304 305 306 308 309 309 310 312 314 316 318 319 319 319 320 321 322 322 322 321 320 320 320 320 320 321 322 321 321 322 323 324 324 324 323 321 318 318 318 318 319 321 323 324 324 325 325 325 324
311 311 310 309 308 308 307 307 308 307 306 306 305 304 304 303 304 306 308 308 308 309 311 314 316 317 317 317 317 318 319 319 319 318 318 318 318 317 316 317 319 320 320 320 321 323 324 323 322 322 321 319 318 318 317 317 319 320 320 320 320 320 320
310 309 308 307 307 307 307 307 307 306 306 305 304 304 303 302 302 303 304 305 307 308 309 311 313 314 314 315 315 314 315 316 316 315 315 316 317 315 314 315 316 316 317 318 319 321 321 321 321 321 321 319 318 318 318 318 318 318 318 317 317 317 317
308 307 306 305 305 306 306 306 306 306 306 305 304 303 302 302 301 301 301 302 304 306 307 308 310 312 312 313 314 313 313 313 313 312 311 312 314 314 314 313 314 314 314 315 316 317 317 318 320 320 319 318 318 318 318 319 319 318 317 317 316 316 315
305 305 304 303 303 303 303 304 304 304 304 304 304 302 301 301 300 300 300 300 301 302 303 305 307 310 311 311 312 312 311 310 309 309 309 308 309 310 311 311 312 312 313 314 314 315 315 316 318 319 319 318 318 317 317 317 317 317 316 316 315 314 313
304 304 303 303 303 302 302 302 302 302 302 303 303 302 300 300 299 299 299 299 299 300 301 302 304 306 308 309 309 310 310 309 308 308 307 305 305 306 307 307 308 309 311 312 313 314 315 316 317 317 316 315 315 315 315 314 314 314 313 313 313 312 311
303 303 302 303 303 303 302 302 302 302 302 302 302 301 300 300 300 299 298 298 298 299 300 300 301 302 303 305 306 306 307 307 307 306 305 304 304 304 304 305 305 306 307 309 310 311 312 313 313 312 311 312 312 312 312 311 311 311 311 310 311 310 310
303 302 301 301 302 302 302 302 302 302 302 302 302 302 301 301 301 301 300 298 298 298 299 299 300 300 301 302 303 303 304 304 305 304 304 303 303 303 302 302 302 303 304 304 305 306 307 307 307 307 306 307 307 308 308 308 308 308 308 308 308 309 308
303 303 301 300 300 300 300 300 301 301 302 302 301 302 301 301 301 301 301 299 299 298 298 298 299 299 300 300 300 301 302 302 303 303 302 302 302 302 301 301 301 301 301 302 303 304 304 303 303 303 303 303 303 304 304 304 305 306 306 306 307 307 307
Wind_Speed
12 13 15 15 14 13 14 14 13 14 14 15 16 16 16 17 18 20 20 21 21 22 23 23 24 23 24 24 23 24 25 24 25 24 21 20 18 16 18 20 19 14 7 7 8 6 3 2 5 8 9 12 15 13 13 15 16 16 16 15 13 13 14
13 14 15 15 16 15 15 15 15 16 16 15 15 17 17 17 19 21 22 23 22 24 25 25 24 23 22 24 24 24 26 24 24 25 22 22 20 15 15 18 16 12 6 5 8 7 3 2 3 3 6 10 12 15 18 17 17 17 16 15 15 16 14
14 15 16 17 17 17 17 17 17 18 17 16 16 17 18 19 20 21 23 24 23 23 25 26 26 24 23 24 24 24 27 27 25 23 22 21 20 17 16 17 14 10 6 4 6 7 5 3 2 3 7 9 8 13 20 18 16 17 17 17 17 16 15
14 15 16 17 18 18 19 19 19 19 17 17 17 18 20 20 21 22 23 24 24 23 24 26 25 25 24 24 24 24 25 27 25 22 21 21 21 20 19 19 18 17 14 9 11 12 8 4 4 3 6 11 10 12 17 18 17 16 17 18 18 17 17
13 14 16 17 18 19 20 20 21 21 17 16 18 21 22 21 21 23 23 23 25 24 24 25 25 25 24 23 24 24 24 26 25 22 22 23 21 20 20 19 19 21 20 15 14 15 12 10 8 4 5 9 8 9 15 18 17 17 18 18 17 18 17
13 14 15 17 18 18 20 20 21 21 19 17 18 20 21 22 22 23 22 23 24 24 24 25 24 25 24 23 24 25 25 26 25 24 24 24 22 20 20 20 19 19 19 17 15 15 14 12 10 6 5 7 5 5 10 15 16 16 18 18 17 17 17
15 15 16 17 19 19 20 21 22 22 20 20 20 19 20 22 24 25 25 24 24 22 22 22 22 23 23 22 24 25 25 25 25 24 24 23 23 22 20 20 20 18 17 17 17 16 14 12 11 9 5 5 7 7 7 11 14 14 15 17 17 17 16
16 17 17 18 19 20 22 23 23 22 21 21 20 21 22 22 24 27 25 24 23 20 19 20 20 21 21 21 22 23 23 23 23 24 24 23 23 23 21 20 20 19 18 18 18 16 14 12 12 11 7 4 6 7 7 10 12 12 13 15 17 17 16
17 17 18 19 19 21 23 23 22 22 22 21 20 23 24 22 23 25 22 21 22 20 20 20 20 20 20 20 21 21 22 22 22 23 24 22 21 21 21 20 19 19 18 18 17 16 14 12 11 10 9 7 5 4 4 6 7 9 13 16 17 18 17
18 18 20 21 21 22 22 21 22 23 23 22 21 23 25 23 22 23 20 18 20 21 21 20 19 18 18 19 20 20 21 21 20 19 20 21 19 18 20 21 20 18 17 16 17 15 13 12 11 10 11 13 9 4 3 5 5 7 13 17 18 17 17
18 19 20 21 21 21 21 21 22 24 24 24 23 23 23 21 20 21 22 19 20 20 19 19 18 15 15 17 19 19 20 21 19 17 17 18 19 19 20 22 20 18 16 16 17 16 15 14 13 12 13 15 15 9 3 2 3 7 13 15 15 16 17
17 19 19 20 21 20 19 19 21 23 24 24 24 22 21 19 17 19 22 22 20 18 16 16 15 13 13 15 17 17 17 17 17 16 15 16 17 18 19 20 19 18 18 17 17 18 18 17 14 13 11 12 14 11 6 5 2 6 13 14 13 16 18
17 18 19 20 21 20 19 18 20 22 23 22 21 21 20 18 15 16 20 22 22 20 16 13 12 13 12 13 15 15 12 12 13 14 15 16 16 16 18 18 18 20 20 19 19 18 19 17 14 12 10 10 11 8 10 12 7 5 12 16 14 16 19
17 18 19 20 19 19 19 19 20 22 22 21 20 20 19 16 15 15 17 20 20 17 14 12 12 13 13 12 13 12 10 11 12 12 14 15 14 15 17 19 20 22 20 19 18 17 16 16 15 12 9 9 10 10 13 15 11 7 10 16 14 14 19
18 18 19 19 18 18 19 20 20 22 22 21 19 19 17 14 13 13 13 15 14 11 10 11 12 14 14 13 11 10 10 11 12 13 13 14 15 15 17 20 21 21 18 17 16 14 13 14 13 9 6 7 10 10 10 12 13 11 10 15 14 13 19
18 18 18 18 18 19 20 20 21 22 21 20 19 17 16 15 14 11 8 10 9 7 8 9 11 11 12 11 11 11 12 12 13 14 12 12 16 16 16 19 17 16 17 16 14 13 12 11 9 6 6 7 11 11 8 8 12 14 13 15 14 15 20
19 20 19 19 19 19 20 21 20 21 22 21 19 17 16 15 14 11 9 8 6 4 5 7 8 8 8 10 11 12 12 12 12 13 10 10 13 14 15 18 16 14 16 15 12 12 10 8 7 5 8 10 11 12 12 9 11 16 16 15 14 17 20
22 23 21 21 21 20 21 21 20 21 22 21 20 19 17 15 14 13 12 8 4 3 2 3 4 4 5 7 8 9 9 9 9 10 10 9 10 13 14 14 12 10 11 12 11 10 8 8 9 8 9 12 14 16 16 12 12 16 17 17 16 18 20
22 23 22 22 22 21 22 23 22 22 22 20 20 20 18 17 17 14 13 10 6 3 3 3 2 3 2 2 4 3 4 5 6 6 8 8 7 9 9 7 5 4 6 9 10 8 7 7 9 10 11 13 15 17 17 15 14 16 16 17 16 17 20
20 21 21 21 21 20 21 21 21 22 21 20 21 19 16 18 18 15 14 14 11 8 7 7 6 4 4 3 1 1 2 3 4 4 4 6 6 6 7 7 6 6 8 11 9 7 9 9 10 11 12 14 17 18 18 17 17 15 13 14 15 16 19
18 20 19 19 20 20 20 20 20 20 20 21 20 18 15 16 16 15 15 15 14 11 9 9 8 7 8 7 4 3 4 5 6 7 6 5 4 5 7 9 9 9 9 10 8 9 12 12 12 13 14 16 17 18 17 16 16 12 7 8 9 12 15
17 18 18 19 20 20 20 21 21 20 21 21 21 19 18 18 17 17 16 14 14 14 13 12 11 10 10 9 9 8 7 7 8 9 8 7 6 4 5 8 9 8 7 8 9 10 12 11 13 14 15 15 15 16 15 12 11 8 6 7 5 7 12
18 18 19 19 20 20 21 21 22 22 22 22 22 21 20 21 22 22 20 18 17 17 18 17 13 11 10 10 12 12 9 8 8 5 2 7 7 4 3 5 6 4 5 8 10 11 11 11 13 13 13 14 14 16 16 11 10 8 7 7 3 6 11
19 19 19 20 19 20 21 22 23 23 24 24 24 22 22 22 24 25 24 23 21 20 20 18 15 13 11 11 13 14 13 11 11 10 4 5 5 0 1 3 4 5 6 11 15 15 12 11 12 11 11 13 14 15 16 13 12 11 8 5 4 8 10
19 19 19 19 19 20 22 22 23 23 24 24 25 25 25 25 25 26 26 26 25 24 22 20 18 15 14 13 13 16 18 17 17 17 11 1 2 2 3 1 4 6 5 8 12 14 13 12 12 11 10 11 12 12 13 12 12 12 10 6 7 11 11
19 19 20 19 19 21 22 23 23 23 23 23 25 26 27 28 28 28 28 29 28 26 24 23 20 18 18 16 15 17 18 18 18 19 18 13 7 5 5 6 8 9 6 7 9 11 13 15 14 12 13 14 12 10 10 10 9 11 12 11 12 11 10
19 19 19 19 20 21 22 23 23 24 24 25 26 27 27 29 29 29 30 31 30 28 26 24 23 21 21 19 16 17 17 17 19 20 21 20 17 15 14 14 13 12 11 13 13 13 13 15 16 15 15 17 16 14 13 12 10 11 12 13 14 12 11
20 20 19 19 20 21 23 24 23 25 28 28 27 26 27 30 31 31 31 32 31 29 27 25 23 22 21 19 18 18 18 18 21 23 23 23 23 22 20 18 17 15 15 14 12 13 14 14 15 16 18 19 19 18 18 16 13 13 13 13 14 14 14
20 20 20 20 21 21 22 23 23 24 26 28 28 28 29 32 34 34 34 33 33 32 29 26 24 21 19 18 17 17 17 17 19 22 23 24 23 23 22 20 19 19 18 17 13 13 14 14 15 16 19 21 21 22 22 19 15 13 13 14 14 14 14
21 20 20 21 22 22 22 22 21 22 23 25 27 27 28 33 36 37 36 36 36 35 32 28 24 21 19 18 17 17 17 18 20 22 24 23 22 23 23 22 20 19 19 20 17 13 13 14 15 16 18 20 20 22 22 20 18 16 15 15 15 13 12
20 21 21 21 21 22 23 23 22 22 23 24 25 24 26 30 34 36 37 36 35 35 34 30 25 22 20 19 20 21 20 21 23 24 24 23 21 21 22 22 21 21 20 19 19 16 13 13 16 17 17 19 20 20 18 16 16 17 17 16 16 15 14
21 21 22 23 22 21 21 21 21 21 22 23 24 25 26 28 30 33 35 36 36 35 35 32 27 24 22 20 20 22 22 22 23 23 24 24 22 20 20 21 21 22 20 18 17 17 15 14 15 17 17 18 19 17 14 13 14 16 16 16 16 16 17
22 22 22 23 24 24 24 23 22 22 22 22 22 25 27 28 30 31 32 34 36 36 36 34 31 27 25 22 20 20 21 22 22 22 22 23 24 23 21 21 21 20 18 17 16 15 13 12 13 16 17 18 19 16 14 14 16 16 16 16 16 16 16
22 22 22 22 23 24 25 26 25 24 24 23 23 24 26 28 30 31 31 32 33 34 35 34 33 31 28 26 24 21 20 20 19 20 22 24 25 26 25 24 23 21 18 16 16 16 15 14 15 17 18 18 17 15 16 17 16 15 15 15 14 14 14
22 22 22 22 22 23 23 24 24 24 23 23 22 23 24 25 26 28 31 32 32 32 32 32 32 32 31 29 27 26 23 20 18 20 23 25 26 27 26 25 24 21 19 18 18 18 18 18 19 20 19 18 16 15 16 17 16 15 14 15 14 14 15
21 21 22 23 23 23 22 22 23 23 22 22 21 21 22 22 22 23 27 30 31 30 29 29 30 30 30 29 28 27 26 24 22 23 26 27 25 24 24 23 22 20 20 20 20 20 20 20 20 20 18 17 17 18 18 18 17 16 16 16 17 17 16
19 20 22 23 24 24 24 23 23 22 22 21 21 21 21 21 21 21 22 24 27 29 28 27 27 27 27 27 27 26 26 25 25 25 26 26 24 23 22 21 20 19 20 21 22 22 22 21 20 19 19 18 18 19 19 18 17 16 16 16 16 17 16
Wind_Direction
291 295 300 302 299 292 287 280 271 266 257 248 246 244 241 241 241 239 238 242 243 239 235 235 234 229 226 226 223 216 216 221 223 221 218 216 215 215 212 215 224 226 192 155 170 157 124 183 207 217 211 207 217 217 209 207 202 196 194 198 200 194 190
303 303 303 302 300 297 291 286 278 271 264 256 251 250 249 245 244 246 243 243 246 243 239 240 240 234 228 228 224 217 214 216 220 222 220 216 216 214 209 212 216 212 186 159 171 168 163 168 168 198 192 195 214 220 216 211 207 205 195 192 199 197 193
315 314 312 308 305 302 298 292 285 276 269 265 261 257 255 250 246 248 246 244 244 243 243 244 244 240 233 230 228 221 218 218 217 216 215 215 215 212 211 212 208 198 180 157 179 187 187 181 176 197 187 185 199 212 215 211 205 204 195 191 194 192 192
314 314 313 312 310 308 304 300 295 288 279 274 271 266 261 256 251 248 247 247 245 242 243 245 245 241 234 231 231 227 220 217 214 211 211 212 213 210 209 211 210 209 205 193 191 191 187 181 180 198 204 201 198 198 205 206 200 197 195 193 190 187 188
308 307 305 305 306 305 304 304 303 299 293 285 279 275 272 270 266 258 250 249 248 246 245 245 244 242 237 233 233 230 222 215 212 210 209 207 208 209 209 212 215 215 213 207 200 197 195 191 187 184 190 196 203 200 197 199 199 198 197 194 193 191 185
314 309 306 305 305 305 305 306 307 306 305 300 291 284 280 281 283 275 264 257 253 250 248 247 246 245 240 235 231 227 222 217 212 211 212 207 207 210 211 216 219 218 216 215 210 203 199 194 194 197 178 175 194 218 199 190 193 199 197 196 197 196 187
325 323 319 315 313 313 313 312 311 311 311 306 298 292 288 286 284 281 274 264 257 254 252 249 245 242 239 233 229 225 222 220 216 215 216 213 211 212 213 217 219 217 216 216 212 205 202 200 198 190 162 160 187 213 221 201 195 193 188 192 196 194 187
327 325 320 316 315 316 316 315 314 313 310 305 297 296 297 291 281 280 277 267 262 260 253 247 242 238 233 228 226 223 219 216 214 215 215 214 212 210 209 212 216 217 215 216 214 210 209 212 205 188 161 156 184 199 218 213 206 196 182 183 192 195 187
331 328 323 320 319 320 322 321 320 317 312 306 300 301 302 294 282 281 281 274 269 261 248 245 243 235 229 225 222 220 217 212 211 215 213 210 209 207 205 207 213 216 216 219 217 211 213 216 207 187 179 194 194 171 188 194 198 199 187 179 186 195 189
333 330 328 327 327 328 330 330 327 322 315 309 305 305 303 296 288 284 281 275 266 257 249 246 240 230 225 220 217 219 216 210 209 210 205 203 204 204 203 205 210 213 215 219 214 206 211 212 200 184 193 208 201 174 196 190 178 185 184 179 176 181 184
333 331 330 331 332 335 337 335 333 331 325 319 314 308 300 296 295 290 285 278 268 263 259 248 235 228 226 219 218 220 210 199 198 198 196 200 201 201 203 206 212 217 218 219 212 204 204 204 201 195 198 203 200 198 197 159 165 169 175 182 179 175 178
333 333 333 333 336 340 341 337 337 338 336 333 326 318 306 300 301 294 289 286 276 268 261 248 234 225 225 223 223 221 205 191 191 191 192 198 197 199 206 210 214 217 218 219 215 210 210 211 214 215 208 199 202 200 164 143 184 174 172 181 184 181 180
336 336 336 337 338 341 343 341 340 339 339 339 335 328 320 311 307 297 292 292 282 268 255 243 232 222 220 220 219 215 201 189 186 184 188 195 194 198 207 212 213 214 216 217 215 215 217 217 217 220 215 204 205 190 167 180 197 177 180 184 176 178 179
339 338 339 340 341 344 347 347 345 343 342 341 337 334 331 323 314 309 306 301 287 266 247 233 227 223 216 213 216 208 193 186 182 181 188 191 193 200 208 211 213 213 211 211 212 212 214 215 213 213 211 206 203 178 171 187 185 157 179 183 173 173 175
341 342 345 347 347 348 351 352 350 349 348 344 342 342 345 342 329 321 317 305 284 253 234 227 220 219 215 207 203 196 188 181 177 186 194 193 193 198 207 211 210 210 208 207 211 208 208 216 215 204 188 204 216 196 177 185 177 157 164 176 175 170 172
347 350 352 352 351 350 354 358 357 354 352 350 352 356 0 0 348 336 333 316 288 244 226 225 212 211 211 197 190 194 194 188 184 191 198 202 201 199 209 216 210 206 207 208 213 211 206 208 207 187 156 185 223 215 195 190 174 158 157 169 177 173 175
360 2 360 357 357 356 359 1 1 360 359 359 3 8 10 10 4 360 12 358 314 265 231 232 214 202 202 198 201 204 201 197 197 194 189 202 209 205 214 220 212 208 209 208 213 215 205 192 197 192 160 175 205 198 191 202 180 164 160 162 172 177 178
10 10 9 9 9 7 9 11 9 7 5 5 9 13 15 16 14 17 33 34 346 306 287 260 234 215 210 208 209 212 210 208 206 197 189 197 208 208 215 221 217 216 211 207 214 211 193 189 206 202 174 185 200 187 183 192 175 166 165 161 171 179 177
14 15 14 15 12 10 15 18 16 14 13 15 16 18 24 30 29 33 47 58 56 42 37 20 336 304 287 224 207 219 231 224 222 216 202 200 211 216 220 226 235 237 206 207 220 212 190 197 207 193 171 181 193 181 181 187 175 169 168 169 180 178 172
15 16 16 15 12 10 13 15 16 16 18 22 23 23 33 43 42 41 48 54 57 60 59 53 40 22 12 4 285 276 329 281 269 273 233 223 242 248 246 247 255 252 219 209 213 206 199 196 194 188 172 176 187 180 180 188 181 172 169 178 186 173 168
18 18 18 17 16 14 14 15 17 19 20 25 30 30 33 39 40 42 49 54 54 55 57 51 43 39 30 18 9 357 348 340 327 322 308 284 276 265 252 246 252 256 233 218 212 207 207 192 182 190 184 180 188 186 185 188 179 169 159 164 170 163 167
21 21 21 21 20 20 19 19 22 23 22 28 36 41 41 43 45 48 53 55 51 48 47 41 30 26 27 25 16 355 340 347 344 327 305 286 277 260 233 226 237 250 234 223 218 211 210 189 172 186 188 175 174 182 185 177 158 144 127 130 135 153 162
25 25 25 25 25 24 24 26 29 31 33 35 40 46 47 46 46 47 48 47 44 41 39 37 31 24 24 24 16 6 353 351 4 14 311 278 274 257 219 213 221 221 192 192 193 191 195 183 174 190 194 175 163 167 171 159 136 140 155 152 166 171 157
29 29 29 29 29 28 28 31 33 36 39 41 44 47 48 48 47 46 46 45 42 40 37 36 35 33 30 23 21 27 29 25 30 41 28 282 271 162 145 196 167 129 140 162 165 163 165 166 170 183 186 177 165 156 161 159 146 156 178 172 188 196 174
32 32 32 32 31 31 32 34 34 35 38 39 42 46 48 50 52 51 49 46 44 44 42 37 35 34 33 29 34 43 45 43 43 44 50 89 237 22 31 52 91 94 130 158 149 142 141 143 154 160 156 163 166 156 161 168 159 162 173 170 193 206 186
34 34 33 33 32 33 34 36 35 35 37 40 43 44 45 47 49 51 50 47 45 47 46 45 45 43 38 35 38 44 45 48 52 52 62 80 88 83 91 86 76 81 110 128 119 120 124 122 124 128 126 129 133 131 141 159 166 169 168 170 182 185 159
36 36 35 34 35 35 36 38 38 38 42 45 45 42 42 44 46 49 49 46 47 48 48 50 53 51 46 41 38 42 50 58 60 57 58 67 77 90 101 98 87 82 91 102 111 121 122 113 108 112 117 117 112 106 109 123 140 151 154 161 162 147 130
39 38 37 36 37 38 38 39 41 43 47 49 48 46 44 44 46 48 48 47 47 48 47 49 55 54 50 47 44 46 53 59 62 60 56 60 72 84 92 92 86 78 72 77 101 125 126 118 111 110 110 106 102 99 99 106 123 135 137 140 138 129 127
42 42 41 40 39 38 38 39 40 42 45 48 50 50 48 48 48 48 48 47 46 46 45 45 51 53 51 50 48 48 52 56 60 63 59 58 67 74 79 81 79 75 66 59 78 118 127 115 104 99 95 90 86 86 85 87 98 111 118 120 118 117 118
44 42 42 42 41 41 42 42 39 39 41 44 46 46 46 49 50 50 49 47 45 45 45 45 47 51 55 59 61 63 69 70 68 68 65 64 67 67 67 69 70 71 65 56 63 92 115 112 101 91 87 83 78 76 74 74 79 84 87 93 97 100 102
44 42 41 41 40 41 44 45 44 42 43 45 44 44 45 47 49 50 50 49 47 46 46 46 47 52 57 64 66 66 71 75 73 72 70 70 71 65 61 61 60 59 58 53 54 64 79 96 100 93 87 85 80 76 72 70 72 73 72 73 78 82 84
46 46 44 42 41 40 41 43 44 44 46 46 45 46 47 47 47 48 48 49 50 50 48 45 45 48 52 58 62 62 65 68 69 69 69 70 73 69 61 58 55 52 50 48 48 52 53 63 83 90 89 86 82 78 78 80 80 79 76 73 72 74 76
48 48 46 46 46 46 46 46 48 48 48 48 48 47 48 49 49 48 47 47 49 50 50 48 46 47 47 48 53 59 61 59 58 60 62 62 65 66 62 58 55 52 49 48 50 54 55 59 80 92 93 88 84 82 84 88 88 87 84 79 75 76 77
49 48 48 48 47 48 47 47 49 49 48 48 49 49 49 50 50 48 47 48 48 49 51 52 50 49 49 46 46 50 55 56 56 60 60 57 57 61 62 60 58 55 56 61 65 73 80 85 91 93 91 90 93 95 93 87 84 85 87 86 85 86 86
51 49 47 46 45 44 43 42 43 43 44 45 47 48 47 47 48 47 46 47 48 49 50 53 54 53 51 50 49 49 52 56 59 62 62 58 57 59 61 62 62 61 64 71 77 82 87 90 90 88 88 92 96 97 95 89 83 83 87 88 89 92 93
52 49 46 44 44 42 40 39 39 39 40 41 42 43 43 42 43 44 43 43 45 47 49 52 55 55 53 52 52 53 54 56 58 61 63 60 58 58 59 61 62 63 67 72 76 79 81 82 82 80 81 86 88 88 90 87 81 81 84 84 86 90 93
52 52 49 46 43 41 39 38 37 37 37 38 40 40 40 40 41 41 41 39 40 43 46 49 53 56 57 56 54 54 56 56 57 58 59 57 55 53 55 58 61 64 68 71 73 75 74 73 73 72 71 73 76 78 80 77 74 77 79 77 78 82 87